Saint Bonnet de Bellac- Haute Vienne - France
Donnes mto: jeudi, 15/03/2012
Date Horaire Temp. E. Hum. E. P.atmo. Pluie Vent Direction Direction Ensoleilleme Solaire P. de rose Temp au vent Rafales
15/03/2012 00:00 8,3 C 71 % 1024,3 hPa 0,0 mm 0,4 km/h (0 Bft) E-SE 112 0 min 0 W/m 3,4 C 8,3 C 0,4 km/h (0 Bft)
15/03/2012 00:10 8,3 C 72 % 1024,3 hPa 0,0 mm 3,2 km/h (1 Bft) E-NE 67 0 min 0 W/m 3,6 C 8,3 C 3,6 km/h (1 Bft)
15/03/2012 00:20 8,2 C 72 % 1024,4 hPa 0,0 mm 0,0 km/h (0 Bft) E-SE 112 0 min 0 W/m 3,5 C 8,2 C 0,0 km/h (0 Bft)
15/03/2012 00:30 7,9 C 72 % 1024,4 hPa 0,0 mm 0,0 km/h (0 Bft) E-SE 112 0 min 0 W/m 3,2 C 7,9 C 0,0 km/h (0 Bft)
15/03/2012 00:40 7,6 C 72 % 1024,5 hPa 0,0 mm 0,0 km/h (0 Bft) E-SE 112 0 min 0 W/m 2,9 C 7,6 C 0,0 km/h (0 Bft)
15/03/2012 00:50 7,5 C 72 % 1024,6 hPa 0,0 mm 0,0 km/h (0 Bft) E 90 0 min 0 W/m 2,8 C 7,5 C 0,0 km/h (0 Bft)
15/03/2012 01:00 7,5 C 72 % 1024,6 hPa 0,0 mm 0,4 km/h (0 Bft) E-SE 112 0 min 0 W/m 2,8 C 7,5 C 0,4 km/h (0 Bft)
15/03/2012 01:10 7,6 C 72 % 1024,6 hPa 0,0 mm 0,4 km/h (0 Bft) E 90 0 min 0 W/m 2,9 C 7,6 C 3,2 km/h (1 Bft)
15/03/2012 01:20 7,6 C 72 % 1024,6 hPa 0,0 mm 0,0 km/h (0 Bft) E-SE 112 0 min 0 W/m 2,9 C 7,6 C 3,6 km/h (1 Bft)
15/03/2012 01:30 7,8 C 71 % 1024,5 hPa 0,0 mm 0,0 km/h (0 Bft) E-SE 112 0 min 0 W/m 2,9 C 7,8 C 0,0 km/h (0 Bft)
15/03/2012 01:40 7,7 C 71 % 1024,5 hPa 0,0 mm 0,0 km/h (0 Bft) E 90 0 min 0 W/m 2,8 C 7,7 C 0,0 km/h (0 Bft)
15/03/2012 01:50 7,5 C 71 % 1024,5 hPa 0,0 mm 0,4 km/h (0 Bft) E-SE 112 0 min 0 W/m 2,6 C 7,5 C 4,0 km/h (1 Bft)
15/03/2012 02:02 7,4 C 72 % 1024,4 hPa 0,0 mm 0,4 km/h (0 Bft) E-SE 112 0 min 0 W/m 2,7 C 7,4 C 3,6 km/h (1 Bft)
15/03/2012 02:10 7,2 C 72 % 1024,4 hPa 0,0 mm 0,0 km/h (0 Bft) E-SE 112 0 min 0 W/m 2,5 C 7,2 C 0,0 km/h (0 Bft)
15/03/2012 02:20 6,9 C 72 % 1024,4 hPa 0,0 mm 0,0 km/h (0 Bft) E-SE 112 0 min 0 W/m 2,2 C 6,9 C 0,0 km/h (0 Bft)
15/03/2012 02:30 6,6 C 72 % 1024,4 hPa 0,0 mm 0,0 km/h (0 Bft) E-SE 112 0 min 0 W/m 1,9 C 6,6 C 0,0 km/h (0 Bft)
15/03/2012 02:40 6,2 C 73 % 1024,4 hPa 0,0 mm 0,0 km/h (0 Bft) E-SE 112 0 min 0 W/m 1,7 C 6,2 C 0,0 km/h (0 Bft)
15/03/2012 02:50 5,8 C 74 % 1024,4 hPa 0,0 mm 0,0 km/h (0 Bft) E 90 0 min 0 W/m 1,5 C 5,8 C 0,0 km/h (0 Bft)
15/03/2012 03:00 5,4 C 74 % 1024,3 hPa 0,0 mm 0,0 km/h (0 Bft) E 90 0 min 0 W/m 1,1 C 5,4 C 0,0 km/h (0 Bft)
15/03/2012 03:10 5,1 C 75 % 1024,3 hPa 0,0 mm 0,0 km/h (0 Bft) E 90 0 min 0 W/m 1,0 C 5,1 C 0,0 km/h (0 Bft)
15/03/2012 03:20 5,1 C 76 % 1024,2 hPa 0,0 mm 3,6 km/h (1 Bft) E-SE 112 0 min 0 W/m 1,2 C 5,1 C 3,6 km/h (1 Bft)
15/03/2012 03:30 5,1 C 77 % 1024,1 hPa 0,0 mm 1,8 km/h (1 Bft) E-SE 112 0 min 0 W/m 1,4 C 5,1 C 4,0 km/h (1 Bft)
15/03/2012 03:40 5,2 C 78 % 1024,0 hPa 0,0 mm 3,2 km/h (1 Bft) E-SE 112 0 min 0 W/m 1,7 C 5,2 C 4,3 km/h (1 Bft)
15/03/2012 03:50 5,2 C 78 % 1024,0 hPa 0,0 mm 3,6 km/h (1 Bft) E-SE 112 0 min 0 W/m 1,7 C 5,2 C 6,8 km/h (2 Bft)
15/03/2012 04:00 5,4 C 78 % 1024,0 hPa 0,0 mm 2,2 km/h (1 Bft) E-SE 112 0 min 0 W/m 1,9 C 5,4 C 4,0 km/h (1 Bft)
15/03/2012 04:10 5,4 C 77 % 1024,0 hPa 0,0 mm 1,4 km/h (1 Bft) E-SE 112 0 min 0 W/m 1,7 C 5,4 C 3,6 km/h (1 Bft)
15/03/2012 04:20 5,6 C 77 % 1023,9 hPa 0,0 mm 2,5 km/h (1 Bft) E 90 0 min 0 W/m 1,9 C 5,6 C 2,9 km/h (1 Bft)
15/03/2012 04:30 5,8 C 75 % 1023,8 hPa 0,0 mm 2,9 km/h (1 Bft) E 90 0 min 0 W/m 1,7 C 5,8 C 4,0 km/h (1 Bft)
15/03/2012 04:40 5,9 C 75 % 1023,9 hPa 0,0 mm 3,2 km/h (1 Bft) E-SE 112 0 min 0 W/m 1,8 C 5,9 C 4,0 km/h (1 Bft)
15/03/2012 04:50 5,9 C 74 % 1023,9 hPa 0,0 mm 4,0 km/h (1 Bft) E 90 0 min 0 W/m 1,6 C 5,9 C 6,5 km/h (2 Bft)
15/03/2012 05:00 5,9 C 74 % 1023,9 hPa 0,0 mm 4,0 km/h (1 Bft) E-SE 112 0 min 0 W/m 1,6 C 5,9 C 6,5 km/h (2 Bft)
15/03/2012 05:10 6,0 C 74 % 1023,9 hPa 0,0 mm 3,6 km/h (1 Bft) E 90 0 min 0 W/m 1,7 C 6,0 C 6,5 km/h (2 Bft)
15/03/2012 05:20 6,1 C 73 % 1023,9 hPa 0,0 mm 3,6 km/h (1 Bft) E-SE 112 0 min 0 W/m 1,6 C 6,1 C 7,2 km/h (2 Bft)
15/03/2012 05:30 6,1 C 73 % 1023,8 hPa 0,0 mm 4,3 km/h (1 Bft) E-SE 112 0 min 0 W/m 1,6 C 6,1 C 7,9 km/h (2 Bft)
15/03/2012 05:40 6,2 C 73 % 1023,9 hPa 0,0 mm 3,2 km/h (1 Bft) E-SE 112 0 min 0 W/m 1,7 C 6,2 C 7,9 km/h (2 Bft)
15/03/2012 05:50 6,3 C 73 % 1023,9 hPa 0,0 mm 3,2 km/h (1 Bft) E 90 0 min 0 W/m 1,8 C 6,3 C 4,0 km/h (1 Bft)
15/03/2012 06:00 6,2 C 72 % 1023,9 hPa 0,0 mm 0,0 km/h (0 Bft) E-SE 112 0 min 0 W/m 1,5 C 6,2 C 0,0 km/h (0 Bft)
15/03/2012 06:10 6,1 C 73 % 1024,0 hPa 0,0 mm 2,5 km/h (1 Bft) E 90 0 min 0 W/m 1,6 C 6,1 C 4,0 km/h (1 Bft)
15/03/2012 06:20 6,1 C 73 % 1024,0 hPa 0,0 mm 3,2 km/h (1 Bft) E-SE 112 0 min 0 W/m 1,6 C 6,1 C 4,3 km/h (1 Bft)
15/03/2012 06:30 6,3 C 72 % 1023,9 hPa 0,0 mm 2,5 km/h (1 Bft) E-SE 112 0 min 0 W/m 1,6 C 6,3 C 4,0 km/h (1 Bft)
15/03/2012 06:40 6,4 C 72 % 1024,0 hPa 0,0 mm 0,7 km/h (0 Bft) E-SE 112 0 min 0 W/m 1,7 C 6,4 C 3,2 km/h (1 Bft)
15/03/2012 06:50 6,6 C 72 % 1024,0 hPa 0,0 mm 3,6 km/h (1 Bft) E-SE 112 0 min 0 W/m 1,9 C 6,6 C 4,0 km/h (1 Bft)
15/03/2012 07:00 6,8 C 71 % 1024,0 hPa 0,0 mm 0,0 km/h (0 Bft) E-SE 112 0 min 0 W/m 1,9 C 6,8 C 3,6 km/h (1 Bft)
15/03/2012 07:10 6,8 C 71 % 1024,1 hPa 0,0 mm 3,2 km/h (1 Bft) E 90 0 min 0 W/m 1,9 C 6,8 C 7,6 km/h (2 Bft)
15/03/2012 07:20 6,9 C 71 % 1024,1 hPa 0,0 mm 2,2 km/h (1 Bft) E-SE 112 2 min 0 W/m 2,0 C 6,9 C 4,3 km/h (1 Bft)
15/03/2012 07:30 7,1 C 71 % 1024,2 hPa 0,0 mm 3,2 km/h (1 Bft) E-SE 112 2 min 0 W/m 2,2 C 7,1 C 4,0 km/h (1 Bft)
15/03/2012 07:40 7,3 C 70 % 1024,2 hPa 0,0 mm 3,6 km/h (1 Bft) E-SE 112 2 min 0 W/m 2,2 C 7,3 C 4,3 km/h (1 Bft)
15/03/2012 07:50 7,4 C 70 % 1024,5 hPa 0,0 mm 1,1 km/h (1 Bft) E-SE 112 2 min 0 W/m 2,3 C 7,4 C 3,2 km/h (1 Bft)
15/03/2012 08:00 7,4 C 69 % 1024,4 hPa 0,0 mm 0,0 km/h (0 Bft) E-SE 112 2 min 0 W/m 2,1 C 7,4 C 0,0 km/h (0 Bft)
15/03/2012 08:10 7,6 C 70 % 1024,6 hPa 0,0 mm 4,0 km/h (1 Bft) E-SE 112 2 min 0 W/m 2,5 C 7,6 C 6,5 km/h (2 Bft)
15/03/2012 08:20 8,6 C 68 % 1024,6 hPa 0,0 mm 4,3 km/h (1 Bft) E-SE 112 2 min 0 W/m 3,0 C 8,6 C 6,1 km/h (2 Bft)
15/03/2012 08:30 9,6 C 66 % 1024,6 hPa 0,0 mm 2,9 km/h (1 Bft) E-SE 112 2 min 0 W/m 3,6 C 9,6 C 4,3 km/h (1 Bft)
15/03/2012 08:40 10,5 C 64 % 1024,7 hPa 0,0 mm 2,9 km/h (1 Bft) E-SE 112 2 min 0 W/m 4,0 C 10,5 C 3,2 km/h (1 Bft)
15/03/2012 08:50 11,3 C 64 % 1024,9 hPa 0,0 mm 3,6 km/h (1 Bft) E-SE 112 2 min 0 W/m 4,7 C 11,3 C 4,0 km/h (1 Bft)
15/03/2012 09:00 12,1 C 63 % 1024,9 hPa 0,0 mm 0,4 km/h (0 Bft) E-SE 112 2 min 0 W/m 5,3 C 12,1 C 0,4 km/h (0 Bft)
15/03/2012 09:10 12,8 C 62 % 1025,2 hPa 0,0 mm 1,1 km/h (1 Bft) E-SE 112 2 min 0 W/m 5,7 C 12,8 C 3,6 km/h (1 Bft)
15/03/2012 09:20 13,5 C 59 % 1025,2 hPa 0,0 mm 3,6 km/h (1 Bft) E-SE 112 2 min 0 W/m 5,6 C 13,5 C 4,3 km/h (1 Bft)
15/03/2012 09:30 14,3 C 58 % 1025,2 hPa 0,0 mm 0,7 km/h (0 Bft) E-SE 112 2 min 0 W/m 6,2 C 14,3 C 4,0 km/h (1 Bft)
15/03/2012 09:40 15,2 C 58 % 1025,3 hPa 0,0 mm 0,4 km/h (0 Bft) E 90 2 min 0 W/m 7,0 C 15,2 C 3,2 km/h (1 Bft)
15/03/2012 09:50 15,9 C 57 % 1025,4 hPa 0,0 mm 3,2 km/h (1 Bft) E-SE 112 2 min 0 W/m 7,4 C 15,9 C 3,6 km/h (1 Bft)
15/03/2012 10:00 16,9 C 56 % 1025,5 hPa 0,0 mm 0,0 km/h (0 Bft) E-SE 112 2 min 0 W/m 8,1 C 16,9 C 0,0 km/h (0 Bft)
15/03/2012 10:10 17,8 C 55 % 1025,6 hPa 0,0 mm 1,1 km/h (1 Bft) E-SE 112 2 min 0 W/m 8,6 C 17,8 C 4,3 km/h (1 Bft)
15/03/2012 10:20 18,6 C 53 % 1025,6 hPa 0,0 mm 2,2 km/h (1 Bft) S-SO 202 2 min 0 W/m 8,8 C 18,6 C 4,3 km/h (1 Bft)
15/03/2012 10:30 19,4 C 49 % 1025,7 hPa 0,0 mm 4,0 km/h (1 Bft) O-SO 247 2 min 0 W/m 8,4 C 19,4 C 11,2 km/h (2 Bft)
15/03/2012 10:40 19,8 C 46 % 1025,7 hPa 0,0 mm 5,0 km/h (1 Bft) S-SO 202 2 min 0 W/m 7,8 C 19,8 C 7,6 km/h (2 Bft)
15/03/2012 10:50 19,8 C 46 % 1025,7 hPa 0,0 mm 3,2 km/h (1 Bft) O-SO 247 2 min 0 W/m 7,8 C 19,8 C 3,6 km/h (1 Bft)
15/03/2012 11:00 19,9 C 46 % 1025,7 hPa 0,0 mm 3,2 km/h (1 Bft) S-SO 202 2 min 0 W/m 7,9 C 19,9 C 3,6 km/h (1 Bft)
15/03/2012 11:10 20,5 C 46 % 1025,7 hPa 0,0 mm 4,7 km/h (1 Bft) SO 225 2 min 0 W/m 8,5 C 20,5 C 5,8 km/h (2 Bft)
15/03/2012 11:20 21,1 C 46 % 1025,7 hPa 0,0 mm 5,0 km/h (1 Bft) S-SO 202 2 min 0 W/m 9,0 C 21,1 C 7,6 km/h (2 Bft)
15/03/2012 11:30 21,5 C 45 % 1025,8 hPa 0,0 mm 2,9 km/h (1 Bft) O-SO 247 2 min 0 W/m 9,1 C 21,5 C 4,0 km/h (1 Bft)
15/03/2012 11:40 22,0 C 44 % 1025,8 hPa 0,0 mm 1,4 km/h (1 Bft) O-SO 247 2 min 0 W/m 9,2 C 22,0 C 3,2 km/h (1 Bft)
15/03/2012 11:50 22,3 C 45 % 1025,8 hPa 0,0 mm 0,4 km/h (0 Bft) S-SO 202 2 min 0 W/m 9,8 C 22,3 C 3,2 km/h (1 Bft)
15/03/2012 12:00 22,8 C 43 % 1025,9 hPa 0,0 mm 6,1 km/h (2 Bft) S-SO 202 2 min 0 W/m 9,6 C 22,8 C 10,1 km/h (2 Bft)
15/03/2012 12:10 22,9 C 43 % 1025,8 hPa 0,0 mm 5,0 km/h (1 Bft) S 180 2 min 0 W/m 9,6 C 22,9 C 5,0 km/h (1 Bft)
15/03/2012 12:20 23,2 C 41 % 1025,8 hPa 0,0 mm 1,4 km/h (1 Bft) O-SO 247 2 min 0 W/m 9,2 C 23,2 C 3,6 km/h (1 Bft)
15/03/2012 12:30 23,5 C 41 % 1025,9 hPa 0,0 mm 0,7 km/h (0 Bft) SO 225 2 min 0 W/m 9,5 C 23,5 C 4,3 km/h (1 Bft)
15/03/2012 12:40 23,8 C 42 % 1025,9 hPa 0,0 mm 1,1 km/h (1 Bft) O-SO 247 2 min 0 W/m 10,1 C 23,8 C 1,1 km/h (1 Bft)
15/03/2012 12:50 23,9 C 40 % 1025,9 hPa 0,0 mm 2,5 km/h (1 Bft) N-NO 337 2 min 0 W/m 9,5 C 23,9 C 6,5 km/h (2 Bft)
15/03/2012 13:00 23,9 C 40 % 1025,9 hPa 0,0 mm 2,2 km/h (1 Bft) S-SO 202 2 min 0 W/m 9,5 C 23,9 C 4,3 km/h (1 Bft)
15/03/2012 13:10 24,0 C 41 % 1025,9 hPa 0,0 mm 2,2 km/h (1 Bft) SO 225 2 min 0 W/m 9,9 C 24,0 C 2,9 km/h (1 Bft)
15/03/2012 13:20 24,1 C 40 % 1025,8 hPa 0,0 mm 1,8 km/h (1 Bft) O 270 2 min 0 W/m 9,6 C 24,1 C 6,1 km/h (2 Bft)
15/03/2012 13:30 24,1 C 39 % 1025,6 hPa 0,0 mm 2,5 km/h (1 Bft) S-SO 202 2 min 0 W/m 9,3 C 24,1 C 6,8 km/h (2 Bft)
15/03/2012 13:40 24,3 C 40 % 1025,4 hPa 0,0 mm 2,2 km/h (1 Bft) SO 225 2 min 0 W/m 9,8 C 24,3 C 6,5 km/h (2 Bft)
15/03/2012 13:50 24,1 C 36 % 1025,4 hPa 0,0 mm 6,5 km/h (2 Bft) S-SO 202 2 min 0 W/m 8,1 C 24,1 C 7,6 km/h (2 Bft)
15/03/2012 14:00 24,0 C 38 % 1025,3 hPa 0,0 mm 2,5 km/h (1 Bft) SO 225 2 min 0 W/m 8,8 C 24,0 C 3,6 km/h (1 Bft)
15/03/2012 14:10 24,1 C 39 % 1025,2 hPa 0,0 mm 1,8 km/h (1 Bft) O-SO 247 2 min 0 W/m 9,3 C 24,1 C 2,9 km/h (1 Bft)
15/03/2012 14:20 24,3 C 38 % 1024,9 hPa 0,0 mm 2,9 km/h (1 Bft) SO 225 2 min 0 W/m 9,1 C 24,3 C 2,9 km/h (1 Bft)
15/03/2012 14:30 24,3 C 38 % 1024,8 hPa 0,0 mm 0,7 km/h (0 Bft) O-SO 247 2 min 0 W/m 9,1 C 24,3 C 3,6 km/h (1 Bft)
15/03/2012 14:40 24,3 C 40 % 1024,6 hPa 0,0 mm 1,4 km/h (1 Bft) O 270 2 min 0 W/m 9,8 C 24,3 C 4,0 km/h (1 Bft)
15/03/2012 14:50 24,3 C 38 % 1024,4 hPa 0,0 mm 1,8 km/h (1 Bft) O-SO 247 2 min 0 W/m 9,1 C 24,3 C 4,3 km/h (1 Bft)
15/03/2012 15:00 24,3 C 38 % 1024,4 hPa 0,0 mm 0,0 km/h (0 Bft) O-NO 292 2 min 0 W/m 9,1 C 24,3 C 0,0 km/h (0 Bft)
15/03/2012 15:10 24,3 C 36 % 1024,4 hPa 0,0 mm 2,5 km/h (1 Bft) O 270 2 min 0 W/m 8,3 C 24,3 C 6,5 km/h (2 Bft)
15/03/2012 15:20 24,1 C 37 % 1024,3 hPa 0,0 mm 0,7 km/h (0 Bft) O 270 0 min 0 W/m 8,5 C 24,1 C 4,3 km/h (1 Bft)
15/03/2012 15:30 24,0 C 36 % 1024,2 hPa 0,0 mm 1,8 km/h (1 Bft) O-NO 292 0 min 0 W/m 8,0 C 24,0 C 3,2 km/h (1 Bft)
15/03/2012 15:40 24,1 C 36 % 1024,1 hPa 0,0 mm 1,8 km/h (1 Bft) O 270 0 min 0 W/m 8,1 C 24,1 C 1,8 km/h (1 Bft)
15/03/2012 15:50 24,0 C 36 % 1024,1 hPa 0,0 mm 2,5 km/h (1 Bft) O 270 0 min 0 W/m 8,0 C 24,0 C 4,3 km/h (1 Bft)
15/03/2012 16:00 23,9 C 36 % 1024,0 hPa 0,0 mm 1,4 km/h (1 Bft) SO 225 0 min 0 W/m 7,9 C 23,9 C 4,0 km/h (1 Bft)
15/03/2012 16:10 23,9 C 35 % 1024,0 hPa 0,0 mm 2,2 km/h (1 Bft) O-NO 292 0 min 0 W/m 7,5 C 23,9 C 6,1 km/h (2 Bft)
15/03/2012 16:20 23,9 C 35 % 1023,9 hPa 0,0 mm 0,7 km/h (0 Bft) O-SO 247 0 min 0 W/m 7,5 C 23,9 C 0,7 km/h (0 Bft)
15/03/2012 16:30 23,8 C 35 % 1023,9 hPa 0,0 mm 0,0 km/h (0 Bft) O 270 0 min 0 W/m 7,4 C 23,8 C 0,0 km/h (0 Bft)
15/03/2012 16:40 23,8 C 35 % 1023,8 hPa 0,0 mm 0,7 km/h (0 Bft) NO 315 0 min 0 W/m 7,4 C 23,8 C 3,6 km/h (1 Bft)
15/03/2012 16:50 23,8 C 35 % 1023,7 hPa 0,0 mm 0,0 km/h (0 Bft) NO 315 0 min 0 W/m 7,4 C 23,8 C 0,0 km/h (0 Bft)
15/03/2012 17:00 23,6 C 36 % 1023,6 hPa 0,0 mm 2,9 km/h (1 Bft) NO 315 0 min 0 W/m 7,6 C 23,6 C 4,3 km/h (1 Bft)
15/03/2012 17:10 23,5 C 35 % 1023,6 hPa 0,0 mm 0,0 km/h (0 Bft) SO 225 0 min 0 W/m 7,1 C 23,5 C 0,0 km/h (0 Bft)
15/03/2012 17:20 23,4 C 36 % 1023,6 hPa 0,0 mm 5,0 km/h (1 Bft) NO 315 0 min 0 W/m 7,5 C 23,4 C 5,0 km/h (1 Bft)
15/03/2012 17:30 23,4 C 38 % 1023,6 hPa 0,0 mm 1,4 km/h (1 Bft) NO 315 0 min 0 W/m 8,3 C 23,4 C 4,0 km/h (1 Bft)
15/03/2012 17:40 23,1 C 39 % 1023,6 hPa 0,0 mm 3,2 km/h (1 Bft) N-NO 337 0 min 0 W/m 8,4 C 23,1 C 4,3 km/h (1 Bft)
15/03/2012 17:50 23,0 C 39 % 1023,6 hPa 0,0 mm 1,1 km/h (1 Bft) O-NO 292 0 min 0 W/m 8,3 C 23,0 C 2,9 km/h (1 Bft)
15/03/2012 18:00 22,8 C 39 % 1023,6 hPa 0,0 mm 1,8 km/h (1 Bft) O-NO 292 0 min 0 W/m 8,1 C 22,8 C 3,6 km/h (1 Bft)
15/03/2012 18:10 22,8 C 40 % 1023,6 hPa 0,0 mm 3,2 km/h (1 Bft) O-NO 292 0 min 0 W/m 8,5 C 22,8 C 3,2 km/h (1 Bft)
15/03/2012 18:20 22,4 C 40 % 1023,6 hPa 0,0 mm 1,1 km/h (1 Bft) NO 315 2 min 0 W/m 8,1 C 22,4 C 4,3 km/h (1 Bft)
15/03/2012 18:30 21,8 C 40 % 1023,5 hPa 0,0 mm 0,0 km/h (0 Bft) NO 315 2 min 0 W/m 7,6 C 21,8 C 0,0 km/h (0 Bft)
15/03/2012 18:40 20,9 C 41 % 1023,5 hPa 0,0 mm 0,0 km/h (0 Bft) NO 315 2 min 0 W/m 7,2 C 20,9 C 0,0 km/h (0 Bft)
15/03/2012 18:50 20,2 C 41 % 1023,5 hPa 0,0 mm 0,0 km/h (0 Bft) NO 315 2 min 0 W/m 6,5 C 20,2 C 0,0 km/h (0 Bft)
15/03/2012 19:00 19,4 C 42 % 1023,6 hPa 0,0 mm 0,0 km/h (0 Bft) NO 315 0 min 0 W/m 6,2 C 19,4 C 0,0 km/h (0 Bft)
15/03/2012 19:10 18,6 C 44 % 1023,6 hPa 0,0 mm 0,0 km/h (0 Bft) NO 315 0 min 0 W/m 6,1 C 18,6 C 0,0 km/h (0 Bft)
15/03/2012 19:20 17,8 C 45 % 1023,6 hPa 0,0 mm 0,0 km/h (0 Bft) NO 315 0 min 0 W/m 5,7 C 17,8 C 0,0 km/h (0 Bft)
15/03/2012 19:30 17,1 C 46 % 1023,6 hPa 0,0 mm 0,0 km/h (0 Bft) NO 315 0 min 0 W/m 5,4 C 17,1 C 0,0 km/h (0 Bft)
15/03/2012 19:40 16,4 C 47 % 1023,6 hPa 0,0 mm 0,0 km/h (0 Bft) NO 315 0 min 0 W/m 5,1 C 16,4 C 0,0 km/h (0 Bft)
15/03/2012 19:50 15,8 C 49 % 1023,5 hPa 0,0 mm 0,0 km/h (0 Bft) NO 315 0 min 0 W/m 5,1 C 15,8 C 0,0 km/h (0 Bft)
15/03/2012 20:00 15,3 C 51 % 1023,5 hPa 0,0 mm 0,0 km/h (0 Bft) NO 315 0 min 0 W/m 5,2 C 15,3 C 0,0 km/h (0 Bft)
15/03/2012 20:10 14,8 C 53 % 1023,6 hPa 0,0 mm 0,0 km/h (0 Bft) NO 315 0 min 0 W/m 5,3 C 14,8 C 0,0 km/h (0 Bft)
15/03/2012 20:20 14,4 C 53 % 1023,6 hPa 0,0 mm 0,0 km/h (0 Bft) NO 315 0 min 0 W/m 4,9 C 14,4 C 0,0 km/h (0 Bft)
15/03/2012 20:30 13,9 C 54 % 1023,6 hPa 0,0 mm 0,0 km/h (0 Bft) NO 315 0 min 0 W/m 4,7 C 13,9 C 0,0 km/h (0 Bft)
15/03/2012 20:40 13,6 C 55 % 1023,7 hPa 0,0 mm 0,0 km/h (0 Bft) NO 315 0 min 0 W/m 4,7 C 13,6 C 0,0 km/h (0 Bft)
15/03/2012 20:50 13,4 C 56 % 1023,7 hPa 0,0 mm 0,0 km/h (0 Bft) NO 315 0 min 0 W/m 4,8 C 13,4 C 0,0 km/h (0 Bft)
15/03/2012 21:00 13,3 C 57 % 1023,8 hPa 0,0 mm 0,0 km/h (0 Bft) NO 315 0 min 0 W/m 5,0 C 13,3 C 0,0 km/h (0 Bft)
15/03/2012 21:10 12,9 C 58 % 1023,8 hPa 0,0 mm 0,0 km/h (0 Bft) NO 315 0 min 0 W/m 4,8 C 12,9 C 0,0 km/h (0 Bft)
15/03/2012 21:20 12,7 C 58 % 1023,8 hPa 0,0 mm 0,0 km/h (0 Bft) NO 315 0 min 0 W/m 4,7 C 12,7 C 0,0 km/h (0 Bft)
15/03/2012 21:30 12,3 C 59 % 1023,9 hPa 0,0 mm 0,0 km/h (0 Bft) N-NE 22 0 min 0 W/m 4,5 C 12,3 C 0,0 km/h (0 Bft)
15/03/2012 21:40 12,4 C 61 % 1023,9 hPa 0,0 mm 0,0 km/h (0 Bft) E 90 0 min 0 W/m 5,1 C 12,4 C 0,0 km/h (0 Bft)
15/03/2012 21:50 12,5 C 61 % 1023,9 hPa 0,0 mm 0,4 km/h (0 Bft) E 90 0 min 0 W/m 5,2 C 12,5 C 0,4 km/h (0 Bft)
15/03/2012 22:00 12,6 C 62 % 1023,9 hPa 0,0 mm 2,9 km/h (1 Bft) E-SE 112 0 min 0 W/m 5,5 C 12,6 C 2,9 km/h (1 Bft)
15/03/2012 22:10 12,8 C 62 % 1023,9 hPa 0,0 mm 2,5 km/h (1 Bft) E-SE 112 0 min 0 W/m 5,7 C 12,8 C 4,0 km/h (1 Bft)
15/03/2012 22:20 12,8 C 63 % 1024,0 hPa 0,0 mm 3,2 km/h (1 Bft) E-SE 112 0 min 0 W/m 5,9 C 12,8 C 4,3 km/h (1 Bft)
15/03/2012 22:30 12,6 C 63 % 1024,0 hPa 0,0 mm 0,0 km/h (0 Bft) E-SE 112 0 min 0 W/m 5,7 C 12,6 C 1,4 km/h (1 Bft)
15/03/2012 22:40 12,4 C 63 % 1024,0 hPa 0,0 mm 0,0 km/h (0 Bft) E-SE 112 0 min 0 W/m 5,6 C 12,4 C 2,9 km/h (1 Bft)
15/03/2012 22:50 12,2 C 64 % 1024,0 hPa 0,0 mm 0,4 km/h (0 Bft) E-SE 112 0 min 0 W/m 5,6 C 12,2 C 3,2 km/h (1 Bft)
15/03/2012 23:00 11,9 C 65 % 1023,9 hPa 0,0 mm 1,8 km/h (1 Bft) E-SE 112 0 min 0 W/m 5,5 C 11,9 C 3,6 km/h (1 Bft)
15/03/2012 23:10 11,7 C 66 % 1024,0 hPa 0,0 mm 1,4 km/h (1 Bft) E-SE 112 0 min 0 W/m 5,6 C 11,7 C 3,6 km/h (1 Bft)
15/03/2012 23:20 11,5 C 67 % 1024,0 hPa 0,0 mm 2,5 km/h (1 Bft) E-SE 112 0 min 0 W/m 5,6 C 11,5 C 2,9 km/h (1 Bft)
15/03/2012 23:30 11,4 C 67 % 1024,0 hPa 0,0 mm 0,0 km/h (0 Bft) E-SE 112 0 min 0 W/m 5,5 C 11,4 C 0,0 km/h (0 Bft)
15/03/2012 23:40 11,1 C 67 % 1023,9 hPa 0,0 mm 0,0 km/h (0 Bft) E 90 0 min 0 W/m 5,2 C 11,1 C 0,0 km/h (0 Bft)
15/03/2012 23:50 10,6 C 67 % 1023,9 hPa 0,0 mm 0,0 km/h (0 Bft) E 90 0 min 0 W/m 4,7 C 10,6 C 0,0 km/h (0 Bft)
_ Min-Heure 03:30 17:10 20:00 - 23:50 - - - - 03:10 03:30 23:50
Minimum _ 5,1 C 35 % 1023,5 hPa - 0,0 km/h (0 Bft) - - - - 1,0 C 5,1 C 0,0 km/h (0 Bft)
_ Max-Heure 15:10 04:00 13:10 23:50 13:50 - - 18:50 23:50 12:40 15:10 10:30
Maximum _ 24,3 C 78 % 1025,9 hPa 0,0 mm 6,5 km/h
S-SO (2 Bft)
- - 2 min 0 W/m 10,1 C 24,3 C 11,2 km/h
O-SO (2 Bft)
Moyenne _ 14,6 C 57 % 1024,4 hPa #0,0 mm 1,6 km/h (1 Bft) E-SE - #1:44 h 0 W/m 5,4 C 14,6 C 3,0 km/h (1 Bft)
Saint Bonnet de Bellac- Haute Vienne - France